Hourly Weather Barra do Dande

Today, 19 April, Monday

Time Temperature Precipitation Wind Pressure Humidity
00:00 +27°C° 0.2 mm 1 mps 756 mmHg 95%
01:00 +27°C° 0 mm 1 mps 756 mmHg 95%
02:00 +27°C° 0.5 mm 2 mps 756 mmHg 95%
03:00 +27°C° 0.5 mm 2 mps 756 mmHg 96%
04:00 +26°C° 0.5 mm 2 mps 756 mmHg 96%
05:00 +27°C° 0 mm 2 mps 757 mmHg 95%
06:00 +27°C° 0 mm 2 mps 757 mmHg 95%
07:00 +27°C° 0 mm 2 mps 757 mmHg 94%
08:00 +28°C° 0.2 mm 2 mps 758 mmHg 89%
09:00 +29°C° 0.2 mm 2 mps 758 mmHg 84%
10:00 +30°C° 0.2 mm 2 mps 758 mmHg 79%
11:00 +31°C° 0.7 mm 2 mps 758 mmHg 76%
12:00 +32°C° 0.7 mm 2 mps 757 mmHg 72%
13:00 +33°C° 0.7 mm 1 mps 756 mmHg 69%
14:00 +32°C° 0.6 mm 2 mps 756 mmHg 72%
15:00 +32°C° 0.6 mm 4 mps 756 mmHg 75%
16:00 +30°C° 0.6 mm 5 mps 756 mmHg 79%
17:00 +29°C° 0 mm 4 mps 756 mmHg 83%
18:00 +28°C° 0 mm 3 mps 757 mmHg 87%
19:00 +27°C° 0 mm 2 mps 757 mmHg 92%
20:00 +27°C° 0 mm 2 mps 757 mmHg 91%
21:00 +27°C° 0 mm 2 mps 758 mmHg 91%
22:00 +26°C° 0 mm 1 mps 758 mmHg 91%
23:00 +26°C° 0 mm 1 mps 758 mmHg 92%

Tomorrow, 20 April, Tuesday

Time Temperature Precipitation Wind Pressure Humidity
00:00 +26°C° 0 mm 1 mps 757 mmHg 92%
01:00 +26°C° 0 mm 1 mps 757 mmHg 93%
02:00 +25°C° 0 mm 2 mps 757 mmHg 93%
03:00 +25°C° 0 mm 2 mps 757 mmHg 94%
04:00 +25°C° 0 mm 2 mps 757 mmHg 94%
05:00 +25°C° 0 mm 2 mps 757 mmHg 93%
06:00 +26°C° 0 mm 2 mps 758 mmHg 92%
07:00 +26°C° 0 mm 2 mps 759 mmHg 91%
08:00 +28°C° 0 mm 1 mps 759 mmHg 83%
09:00 +30°C° 0 mm 1 mps 759 mmHg 75%
10:00 +31°C° 0 mm 1 mps 759 mmHg 67%
11:00 +32°C° 0 mm 2 mps 758 mmHg 64%
12:00 +34°C° 0 mm 2 mps 758 mmHg 61%
13:00 +35°C° 0 mm 2 mps 757 mmHg 59%
14:00 +34°C° 0.3 mm 2 mps 757 mmHg 64%
15:00 +32°C° 0.3 mm 2 mps 756 mmHg 70%
16:00 +30°C° 0.3 mm 2 mps 756 mmHg 75%
17:00 +29°C° 0.1 mm 2 mps 756 mmHg 80%
18:00 +28°C° 0.1 mm 1 mps 757 mmHg 84%
19:00 +27°C° 0.1 mm 1 mps 757 mmHg 89%
20:00 +27°C° 0 mm 1 mps 757 mmHg 89%
21:00 +27°C° 0 mm 1 mps 757 mmHg 89%
22:00 +26°C° 0 mm 1 mps 758 mmHg 90%
23:00 +26°C° 0 mm 2 mps 757 mmHg 91%

Day after tomorrow, 21 April, Wednesday

Time Temperature Precipitation Wind Pressure Humidity
00:00 +26°C° 0 mm 2 mps 757 mmHg 93%
01:00 +26°C° 0 mm 2 mps 756 mmHg 94%
02:00 +26°C° 0 mm 2 mps 756 mmHg 95%
03:00 +25°C° 0 mm 3 mps 756 mmHg 96%
04:00 +25°C° 0 mm 3 mps 756 mmHg 97%
05:00 +25°C° 0 mm 3 mps 756 mmHg 96%
06:00 +26°C° 0 mm 3 mps 757 mmHg 95%
07:00 +26°C° 0 mm 3 mps 757 mmHg 94%
08:00 +28°C° 0 mm 3 mps 757 mmHg 86%
09:00 +30°C° 0 mm 3 mps 757 mmHg 77%
10:00 +33°C° 0 mm 3 mps 757 mmHg 69%
11:00 +34°C° 0 mm 2 mps 757 mmHg 64%
12:00 +36°C° 0 mm 2 mps 756 mmHg 58%
13:00 +37°C° 0 mm 2 mps 755 mmHg 53%
14:00 +37°C° 0 mm 2 mps 755 mmHg 56%
15:00 +36°C° 0 mm 3 mps 755 mmHg 58%
16:00 +35°C° 0 mm 3 mps 754 mmHg 61%
17:00 +33°C° 0.2 mm 3 mps 755 mmHg 72%
18:00 +30°C° 0.2 mm 3 mps 755 mmHg 82%
19:00 +28°C° 0.2 mm 3 mps 755 mmHg 93%
20:00 +28°C° 0.4 mm 2 mps 756 mmHg 93%
21:00 +27°C° 0.4 mm 2 mps 756 mmHg 93%
22:00 +27°C° 0.4 mm 2 mps 757 mmHg 94%
23:00 +27°C° 0.4 mm 2 mps 756 mmHg 94%

22 April, Thursday

Time Temperature Precipitation Wind Pressure Humidity
00:00 +27°C° 0.4 mm 2 mps 756 mmHg 95%
01:00 +26°C° 0.4 mm 2 mps 756 mmHg 96%
02:00 +26°C° 0 mm 2 mps 756 mmHg 96%
03:00 +26°C° 0 mm 2 mps 756 mmHg 96%
04:00 +26°C° 0 mm 2 mps 756 mmHg 96%
05:00 +26°C° 0.1 mm 2 mps 757 mmHg 96%
06:00 +26°C° 0.1 mm 2 mps 757 mmHg 95%
07:00 +26°C° 0.1 mm 2 mps 757 mmHg 95%
08:00 +29°C° 0 mm 2 mps 758 mmHg 86%
09:00 +31°C° 0 mm 2 mps 758 mmHg 77%
10:00 +34°C° 0 mm 2 mps 758 mmHg 69%
11:00 +35°C° 0 mm 2 mps 757 mmHg 64%
12:00 +36°C° 0 mm 2 mps 757 mmHg 58%
13:00 +37°C° 0 mm 2 mps 756 mmHg 53%
14:00 +36°C° 0.2 mm 3 mps 755 mmHg 59%
15:00 +35°C° 0.2 mm 4 mps 755 mmHg 64%
16:00 +34°C° 0.2 mm 4 mps 755 mmHg 70%
17:00 +32°C° 3.2 mm 4 mps 755 mmHg 78%
18:00 +29°C° 3.2 mm 3 mps 756 mmHg 85%
19:00 +27°C° 3.2 mm 3 mps 756 mmHg 93%
20:00 +27°C° 2.2 mm 3 mps 757 mmHg 92%
21:00 +26°C° 2.2 mm 3 mps 757 mmHg 92%
22:00 +25°C° 2.2 mm 3 mps 758 mmHg 91%
23:00 +25°C° 0 mm 3 mps 758 mmHg 91%

23 April, Friday

Time Temperature Precipitation Wind Pressure Humidity
00:00 +26°C° 0 mm 2 mps 757 mmHg 92%
01:00 +26°C° 0 mm 2 mps 757 mmHg 92%
02:00 +26°C° 0.1 mm 2 mps 757 mmHg 92%
03:00 +25°C° 0.1 mm 2 mps 757 mmHg 93%
04:00 +25°C° 0.1 mm 3 mps 756 mmHg 93%
05:00 +25°C° 0.7 mm 2 mps 757 mmHg 94%
06:00 +26°C° 0.7 mm 2 mps 757 mmHg 94%
07:00 +26°C° 0.7 mm 2 mps 758 mmHg 94%
08:00 +27°C° 0.2 mm 3 mps 758 mmHg 88%
09:00 +29°C° 0.2 mm 3 mps 758 mmHg 83%
10:00 +30°C° 0.2 mm 3 mps 759 mmHg 77%
11:00 +31°C° 0 mm 3 mps 758 mmHg 73%
12:00 +31°C° 0 mm 2 mps 757 mmHg 70%
13:00 +32°C° 0 mm 2 mps 756 mmHg 67%
14:00 +32°C° 0 mm 2 mps 756 mmHg 67%
15:00 +32°C° 0 mm 2 mps 756 mmHg 67%
16:00 +32°C° 0 mm 2 mps 755 mmHg 67%
17:00 +30°C° 0.2 mm 2 mps 756 mmHg 74%
18:00 +29°C° 0.2 mm 2 mps 756 mmHg 80%
19:00 +27°C° 0.2 mm 1 mps 756 mmHg 86%
20:00 +27°C° 0 mm 2 mps 756 mmHg 87%
21:00 +27°C° 0 mm 2 mps 756 mmHg 88%
22:00 +27°C° 0 mm 2 mps 757 mmHg 89%
23:00 +26°C° 0 mm 2 mps 756 mmHg 88%

24 April, Saturday

Time Temperature Precipitation Wind Pressure Humidity
00:00 +26°C° 0 mm 2 mps 756 mmHg 88%
01:00 +26°C° 0 mm 1 mps 756 mmHg 87%
02:00 +26°C° 0.1 mm 1 mps 756 mmHg 89%
03:00 +25°C° 0.1 mm 1 mps 756 mmHg 90%
04:00 +25°C° 0.1 mm 1 mps 756 mmHg 91%
05:00 +25°C° 0.1 mm 2 mps 756 mmHg 92%
06:00 +25°C° 0.1 mm 2 mps 757 mmHg 92%
07:00 +25°C° 0.1 mm 2 mps 757 mmHg 92%
08:00 +27°C° 0 mm 2 mps 757 mmHg 87%
09:00 +28°C° 0 mm 1 mps 758 mmHg 81%
10:00 +30°C° 0 mm 1 mps 758 mmHg 76%
11:00 +30°C° 0 mm 1 mps 757 mmHg 76%
12:00 +29°C° 0 mm 1 mps 757 mmHg 77%
13:00 +29°C° 0 mm 1 mps 756 mmHg 78%
14:00 +30°C° 0 mm 1 mps 756 mmHg 76%
15:00 +30°C° 0 mm 1 mps 755 mmHg 73%
16:00 +31°C° 0 mm 2 mps 755 mmHg 71%
17:00 +30°C° 0 mm 2 mps 755 mmHg 76%
18:00 +29°C° 0 mm 2 mps 755 mmHg 81%
19:00 +27°C° 0 mm 2 mps 756 mmHg 86%
20:00 +27°C° 0.1 mm 1 mps 756 mmHg 88%
21:00 +27°C° 0.1 mm 1 mps 757 mmHg 91%
22:00 +25°C° 0.1 mm 0 mps 757 mmHg 93%
23:00 +26°C° 0.3 mm 1 mps 757 mmHg 93%
Show more